Cosmos 1933 Rocket - Orbit

View from above orbital plane
View from above orbital plane
View from above satellite
View from above satellite

Ground track
Ground track

The orbit data is extracted from the following two-line orbital elements,

1 18959U 88020B   13144.81278808  .00000328  00000-0  37866-4 0  9420
2 18959 082.5386 217.1081 0016460 355.2074 137.1235 14.82487526360580
Epoch (UTC): 24 May 2013 19:30:24
Eccentricity: 0.0016460
inclination: 82.5386°
perigee height: 610 km
apogee height: 633 km
right ascension of ascending node: 217.1081°
argument of perigee: 355.2074°
revolutions per day: 14.82487526
mean anomaly at epoch: 137.1235°
orbit number at epoch: 36058

The dashed part of the orbit path shows where the satellite is in the earth's shadow,  

Developed and maintained by Chris Peat, Heavens-Above GmbH. Please read the updated FAQ before sending e-mail. Imprint. DLR